When you browse on this site, cookies collect data to enhance your experience and personalize the content and advertising you see.
Visit our Privacy Policy to learn more. By continuing to use the site, you agree to this use of cookies and data.
EN

Hourly Weather Skala Prinou

Today, 6 August, Thursday

Time Temperature Precipitation Wind Pressure Humidity
00:00 +25°C° 0 mm 5 mps 755 mmHg 62%
01:00 +23°C° 0 mm 5 mps 755 mmHg 62%
02:00 +23°C° 0 mm 5 mps 755 mmHg 63%
03:00 +22°C° 0 mm 5 mps 755 mmHg 64%
04:00 +22°C° 0 mm 6 mps 755 mmHg 65%
05:00 +21°C° 0 mm 6 mps 756 mmHg 66%
06:00 +23°C° 0 mm 6 mps 756 mmHg 60%
07:00 +26°C° 0 mm 6 mps 756 mmHg 53%
08:00 +28°C° 0 mm 6 mps 756 mmHg 46%
09:00 +29°C° 0 mm 6 mps 756 mmHg 41%
10:00 +32°C° 0 mm 5 mps 756 mmHg 36%
11:00 +34°C° 0 mm 5 mps 756 mmHg 31%
12:00 +35°C° 0 mm 4 mps 756 mmHg 30%
13:00 +35°C° 0 mm 4 mps 755 mmHg 29%
14:00 +36°C° 0 mm 3 mps 755 mmHg 28%
15:00 +36°C° 0 mm 3 mps 755 mmHg 30%
16:00 +35°C° 0 mm 3 mps 754 mmHg 32%
17:00 +35°C° 0 mm 2 mps 754 mmHg 35%
18:00 +32°C° 0 mm 2 mps 754 mmHg 43%
19:00 +30°C° 0 mm 2 mps 754 mmHg 51%
20:00 +28°C° 0 mm 2 mps 754 mmHg 59%
21:00 +27°C° 0 mm 4 mps 755 mmHg 59%
22:00 +26°C° 0 mm 5 mps 755 mmHg 59%
23:00 +26°C° 0 mm 6 mps 755 mmHg 58%

Tomorrow, 7 August, Friday

Time Temperature Precipitation Wind Pressure Humidity
00:00 +24°C° 0 mm 6 mps 755 mmHg 59%
01:00 +23°C° 0 mm 6 mps 755 mmHg 60%
02:00 +23°C° 0 mm 5 mps 755 mmHg 61%
03:00 +23°C° 0 mm 5 mps 755 mmHg 61%
04:00 +22°C° 0 mm 5 mps 755 mmHg 61%
05:00 +22°C° 0 mm 5 mps 755 mmHg 61%
06:00 +25°C° 0 mm 5 mps 755 mmHg 56%
07:00 +27°C° 0 mm 5 mps 756 mmHg 51%
08:00 +29°C° 0 mm 5 mps 756 mmHg 46%
09:00 +30°C° 0 mm 4 mps 756 mmHg 43%
10:00 +33°C° 0 mm 4 mps 756 mmHg 39%
11:00 +34°C° 0 mm 4 mps 756 mmHg 36%
12:00 +35°C° 0 mm 4 mps 755 mmHg 34%
13:00 +36°C° 0 mm 4 mps 755 mmHg 33%
14:00 +37°C° 0 mm 4 mps 755 mmHg 32%
15:00 +36°C° 0.1 mm 4 mps 754 mmHg 36%
16:00 +35°C° 0.1 mm 4 mps 754 mmHg 40%
17:00 +34°C° 0.1 mm 4 mps 753 mmHg 45%
18:00 +32°C° 0.3 mm 4 mps 754 mmHg 52%
19:00 +29°C° 0.3 mm 4 mps 754 mmHg 58%
20:00 +27°C° 0.3 mm 4 mps 754 mmHg 65%
21:00 +27°C° 0.2 mm 4 mps 754 mmHg 63%
22:00 +27°C° 0.2 mm 4 mps 755 mmHg 62%
23:00 +27°C° 0.2 mm 5 mps 755 mmHg 60%

Day after tomorrow, 8 August, Saturday

Time Temperature Precipitation Wind Pressure Humidity
00:00 +26°C° 0 mm 5 mps 755 mmHg 63%
01:00 +25°C° 0 mm 4 mps 755 mmHg 67%
02:00 +23°C° 0 mm 4 mps 755 mmHg 70%
03:00 +23°C° 0 mm 4 mps 755 mmHg 71%
04:00 +23°C° 0 mm 4 mps 755 mmHg 71%
05:00 +23°C° 0 mm 4 mps 755 mmHg 71%
06:00 +25°C° 0 mm 4 mps 755 mmHg 66%
07:00 +26°C° 0 mm 4 mps 755 mmHg 62%
08:00 +28°C° 0 mm 3 mps 755 mmHg 57%
09:00 +29°C° 0 mm 4 mps 755 mmHg 51%
10:00 +32°C° 0 mm 4 mps 755 mmHg 45%
11:00 +34°C° 0 mm 5 mps 755 mmHg 39%
12:00 +34°C° 0 mm 6 mps 754 mmHg 39%
13:00 +34°C° 0 mm 7 mps 754 mmHg 38%
14:00 +34°C° 0 mm 8 mps 754 mmHg 38%
15:00 +35°C° 0.1 mm 8 mps 753 mmHg 37%
16:00 +35°C° 0.1 mm 7 mps 753 mmHg 36%
17:00 +36°C° 0.1 mm 7 mps 752 mmHg 35%
18:00 +34°C° 0 mm 7 mps 753 mmHg 40%
19:00 +32°C° 0 mm 7 mps 753 mmHg 46%
20:00 +29°C° 0 mm 7 mps 753 mmHg 51%
21:00 +28°C° 0 mm 7 mps 754 mmHg 55%
22:00 +27°C° 0 mm 6 mps 754 mmHg 59%
23:00 +26°C° 0 mm 6 mps 755 mmHg 63%

9 August, Sunday

Time Temperature Precipitation Wind Pressure Humidity
00:00 +24°C° 0 mm 6 mps 754 mmHg 64%
01:00 +24°C° 0 mm 6 mps 754 mmHg 64%
02:00 +24°C° 0 mm 6 mps 754 mmHg 64%
03:00 +24°C° 0.1 mm 6 mps 754 mmHg 65%
04:00 +23°C° 0.1 mm 6 mps 754 mmHg 65%
05:00 +23°C° 0.1 mm 6 mps 754 mmHg 66%
06:00 +26°C° 0 mm 7 mps 754 mmHg 61%
07:00 +28°C° 0 mm 7 mps 754 mmHg 55%
08:00 +29°C° 0 mm 7 mps 754 mmHg 50%
09:00 +32°C° 0 mm 7 mps 754 mmHg 45%
10:00 +33°C° 0 mm 8 mps 755 mmHg 40%
11:00 +35°C° 0 mm 8 mps 755 mmHg 36%
12:00 +35°C° 0 mm 8 mps 754 mmHg 35%
13:00 +37°C° 0 mm 9 mps 754 mmHg 34%
14:00 +37°C° 0 mm 9 mps 754 mmHg 33%
15:00 +37°C° 0 mm 9 mps 754 mmHg 34%
16:00 +35°C° 0 mm 9 mps 754 mmHg 35%
17:00 +35°C° 0 mm 9 mps 754 mmHg 36%
18:00 +33°C° 0 mm 8 mps 754 mmHg 42%
19:00 +30°C° 0 mm 7 mps 754 mmHg 48%
20:00 +28°C° 0 mm 6 mps 755 mmHg 53%
21:00 +27°C° 0 mm 6 mps 755 mmHg 56%
22:00 +26°C° 0 mm 5 mps 756 mmHg 58%
23:00 +26°C° 0 mm 4 mps 756 mmHg 60%

10 August, Monday

Time Temperature Precipitation Wind Pressure Humidity
00:00 +25°C° 0 mm 4 mps 756 mmHg 60%
01:00 +25°C° 0 mm 4 mps 756 mmHg 61%
02:00 +23°C° 0 mm 4 mps 756 mmHg 61%
03:00 +23°C° 0 mm 4 mps 756 mmHg 61%
04:00 +23°C° 0 mm 5 mps 756 mmHg 61%
05:00 +22°C° 0 mm 5 mps 756 mmHg 61%
06:00 +25°C° 0 mm 5 mps 756 mmHg 54%
07:00 +27°C° 0 mm 4 mps 757 mmHg 47%
08:00 +29°C° 0 mm 4 mps 757 mmHg 40%
09:00 +32°C° 0 mm 5 mps 757 mmHg 37%
10:00 +33°C° 0 mm 5 mps 757 mmHg 33%
11:00 +34°C° 0 mm 5 mps 757 mmHg 30%
12:00 +35°C° 0 mm 5 mps 757 mmHg 29%
13:00 +36°C° 0 mm 5 mps 757 mmHg 27%
14:00 +36°C° 0 mm 4 mps 756 mmHg 25%
15:00 +36°C° 0 mm 4 mps 756 mmHg 26%
16:00 +36°C° 0 mm 4 mps 756 mmHg 26%
17:00 +36°C° 0 mm 4 mps 756 mmHg 27%
18:00 +34°C° 0 mm 4 mps 756 mmHg 31%
19:00 +32°C° 0 mm 4 mps 757 mmHg 35%
20:00 +29°C° 0 mm 3 mps 757 mmHg 39%
21:00 +28°C° 0 mm 4 mps 757 mmHg 42%
22:00 +27°C° 0 mm 4 mps 758 mmHg 45%
23:00 +25°C° 0 mm 4 mps 758 mmHg 48%

11 August, Tuesday

Time Temperature Precipitation Wind Pressure Humidity
00:00 +25°C° 0 mm 4 mps 758 mmHg 49%
01:00 +24°C° 0 mm 3 mps 758 mmHg 50%
02:00 +24°C° 0 mm 3 mps 758 mmHg 51%
03:00 +24°C° 0 mm 3 mps 758 mmHg 52%
04:00 +22°C° 0 mm 3 mps 758 mmHg 52%
05:00 +22°C° 0 mm 3 mps 758 mmHg 53%
06:00 +25°C° 0 mm 3 mps 758 mmHg 47%
07:00 +27°C° 0 mm 3 mps 758 mmHg 42%
08:00 +30°C° 0 mm 2 mps 758 mmHg 37%
09:00 +31°C° 0 mm 2 mps 758 mmHg 33%
10:00 +34°C° 0 mm 2 mps 758 mmHg 30%
11:00 +35°C° 0 mm 2 mps 758 mmHg 27%
12:00 +35°C° 0 mm 2 mps 758 mmHg 28%
13:00 +35°C° 0 mm 3 mps 758 mmHg 28%
14:00 +35°C° 0 mm 3 mps 757 mmHg 29%
15:00 +35°C° 0 mm 3 mps 757 mmHg 29%
16:00 +35°C° 0 mm 2 mps 757 mmHg 30%
17:00 +35°C° 0 mm 2 mps 757 mmHg 30%
18:00 +32°C° 0 mm 2 mps 757 mmHg 33%
19:00 +31°C° 0 mm 2 mps 757 mmHg 36%
20:00 +29°C° 0 mm 2 mps 757 mmHg 40%
21:00 +28°C° 0 mm 2 mps 757 mmHg 42%
22:00 +27°C° 0 mm 3 mps 757 mmHg 45%
23:00 +26°C° 0 mm 4 mps 758 mmHg 47%
Show more